Погода Ирбейское

Погода Ирбейское : погода сейчас, прогноз погоды и архив. Всё, что Вы хотите узнать о погоде Ирбейское!

Поиск расширенной информации на нашем сайте:

Другие новости

Новости СМИ2

Главная страница сайта

Новости сайта

03.07.2017

Напоминаем, что на нашем специализированном сайте Метеоцентр.Азия вы можете получить высокодетализированные автоматические прогнозы погоды по пунктам России, СНГ и мира в авиационном формате (включающие направление и скорость ветра, видимость, явления погоды, количество и форму облачности, нижнюю и верхнюю границу облачности).

Рекомендуем: купить подарок мужу в Екатеринбурге

Погода Ирбейское - сегодня

Время (UTC), дата Ветер
(°,м/с) 
Видим.   Явления Облачность Т
(°С)
Тd
(°С)
f(%) Тe
(°С)
Pmin
(гПа)
dP
(гПа)
Po
(мм)
O2
(г/м3)
Тmin Tmax R s Состояние
почвы
09 18.09.17 260 (З) 4000 м  слаб. ливневой дождь  10/10 600 м кучево-дожд. 
[Cb cap]
+14.7 +11.5 81 +19  1008  0.4  734  278           
12 18.09.17 260 (З) 20000 м  {ливн. осадки}  10/10 600 м кучево-дожд. 
[Cb cap]
+13.6 +11.1 85 +17  1008  -0.1  734  280    +17.8     
15 18.09.17 260 (З) н/о  {ливн. осадки}  9/9 600 м кучево-дожд. 
[Cb cap]
+12.7 +10.3 85 +15  1008.8  0.7  734  281           
18 18.09.17 тихо ()   н/о  местами туман поземный{ливн. осадки}  8/6 600 м кучево-дожд., средняя 
[Cb cap|Ac lent]
+10.2 +9.7 97 +11  1009.6  0.5  735  284           
21 18.09.17 080 (В) н/о  местами туман поземный  4/4 1000 м 
[Sc]
+6.6 +6.3 98 +8  1008.8  -1.2  734  288           
00 19.09.17 070 (В) 4000 м  туман  10/10 600 м 
[St]
+7 +6.8 99 +8  1006.8  -1.9  732  287  +6.1    0.0    влажная 
03 19.09.17 350 (С) 2000 м  дождь{туман}  10/8 300 м средняя 
[St|As op]
+10.4 +10.1 98 +12  1004.3  -2  731  282           
06 19.09.17 020 (С) 20000 м  {дождь, туман}  10/8 300 м средняя 
[St|Ac As]
+11.3 +10.8 97 +15  1007.4  733  282           
09 19.09.17 120 (ЮВ) 20000 м  в посл. час ливневой дождь  9/8 600 м кучево-дожд., средняя 
[Cb cap|Ac trans]
+12.9 +9.1 78 +13  1008.3  734  281           
12 19.09.17 тихо ()   20000 м  {ливн. осадки}  9/6 600 м кучево-дожд., средняя, верхняя 
[Cb cap|Ac lent|Ci sp]
+11.1 +8.9 86 +11  1009.3  0.8  734  283    +12.9  24     
15 19.09.17 тихо ()   н/о  дымка{ливн. осадки}  9/4 600 м кучево-дожд., средняя, верхняя 
[Cb cap|Ac trans|Ci sp]
+9.2 +8.8 97 +9  1010  0.6  735  285           
18 19.09.17 110 (В) н/о  в посл. час туман{ливн. осадки}  ясно 
+5.7 +5.5 99 +7  1010.6  0.1  735  289           
21 19.09.17 тихо ()   н/о  туман  ясно 
+4.9 +4.9 100 +5  1010.6  -0.1  735  290           
00 20.09.17 тихо ()   0500 м  туман  9/9 600 м кучево-дожд. 
[Cb cap]
+5.3 +5.2 99 +5  1011.7  1.1  736  290  +4.5    0.3    мокрая 
03 20.09.17 160 (Ю) 4000 м  дымка{ливн. осадки, туман}  9/9 600 м кучево-дожд. 
[Cb cap]
+8.8 +8.6 99 +10  1012.1  0.8  736  286           
06 20.09.17 240 (ЮЗ) 20000 м  в посл. час ливневой дождь{туман}  9/9 600 м кучево-дожд. 
[Cb cap]
+10.5 +8 84 +10  1012.5  0.6  737  284           
09 20.09.17 280 (З) 20000 м  слаб. ливневой дождь  10/10 600 м кучево-дожд. 
[Cb cap]
+11.1 +7.7 80 +11  1013.2  0.8  737  284           
12 20.09.17 270 (З) 20000 м  в посл. час ливневой дождь  10/10 600 м кучево-дожд. 
[Cb cap]
+9.7 +7.3 85 +10  1015.1  1.6  739  286    +11.2     
15 20.09.17 280 (З) н/о  слаб. дождь  10/10 600 м 
[Ns]
+8.5 +6.4 87 +9  1017.2  1.9  740  288           
18 20.09.17 260 (З) н/о  {дождь}  10/4 1000 м средняя 
[Sc|Ac As]
+7.7 +6.9 95 +8  1017.8  0.5  740  289           
21 20.09.17 250 (З) н/о  слаб. дождь  10/3 1000 м средняя 
[Sc|As op]
+7.7 +7.2 97 +8  1017.4  -0.4  740  289           
00 21.09.17 260 (З) 20000 м  в посл. час дождь  10/4 1000 м средняя 
[Sc|Ac As]
+7.5 +6.8 95 +7  1016.9  -0.5  740  289  +7.5      мокрая 
03 21.09.17 250 (З) 20000 м  в посл. час ливневой дождь  9/9 600 м кучево-дожд. 
[Cb cap]
+9.3 +6 80 +8  1015.4  -1.2  739  287           
06 21.09.17 250 (З) 20000 м  {ливн. осадки}  6/4 600 м кучево-дожд., средняя 
[Cb cap|Ac lent]
+11.8 +5.1 63 +12  1012.5  -1.6  737  284           
09 21.09.17 130 (ЮВ) 20000 м    8/4 600 м кучево-дожд., средняя, верхняя 
[Cb cap|Ac lent|Ci sp]
+13.6 +2.4 47 +15  1008.3  -3.9  734  281           
Время (UTC), дата Ветер
(°,м/с) 
Видим.   Явления Облачность Т
(°С)
Тd
(°С)
f(%) Тe
(°С)
Pmin
(гПа)
dP
(гПа)
Po
(мм)
O2
(г/м3)
Тmin Tmax R s Состояние
почвы

Для получения пояснительной информации подведите курсор к названию столбца.

ПОГОДА Ирбейское - архив

Всё, что Вы хотите узнать о погоде Ирбейское - удобно и подробно!

Выберите нужную дату (начиная с 1 января 2015* года) и нажмите кнопку "Найти".
Будут отображены архивные сводки погоды по пункту Ирбейское, начиная с указанной даты.


Отображать данные в формате CSV (для использования в таблицах Excel)


Внимание! Наш архив погоды предназначен исключительно для личного некоммерческого использования в познавательных целях. Если Вам необходимы официальные справки о состоянии погоды (для производственных, юридических, коммерческих и т.п. целей), обращайтесь в органы Росгидромета.

*Примечание: данная дата относится к архиву по метеостанциям СССР (Россия, СНГ, Балтия).
Архив по метеостанциям Зарубежной Европы и Азии (кроме Китая) хранится 10 дней, по другим регионам земного шара (Китай, Африка, Америка, Австралия, Океания) - 1 день.

Ирбейское - район местоположения метеостанции


Название, широта, долгота, высота метеостанции:
Ирбейское 55.6°ш. 95.5°д. 252 м над ур. моря [Российская Федерация]

Дополнительная информация

В oтличие oт бoльшинства пoгoдных сайтoв мы публикуем пoдрoбную метеoинфoрмацию в детальнoм прoфессиoнальнoм фoрмате.

Характеристики температуры и влажнoсти вoздуха измеряются на высoте 2 м в тени вдали oт зданий и деревьев.
Скoрoсть ветра измеряется на высoте 10 м (на урoвне рoста челoвека скoрoсть ветра ниже в 1.5-2 раза). Если метеoстанция нахoдится в гoрoде или в лесу, тo скoрoсть ветра занижена на 2-4 м/с пo сравнению с oткрытым местoм. Скoрoсть ветра над акватoриями крупных рек и oзёр, а также на вершинах хoлмoв на 2-5 м/с выше, чем в oбычных услoвиях.
Атмoсфернoе давление в разных тoчках местнoсти мoжет значительнo oтличаться oт давления на метеoстанции, в зависимoсти oт услoвий рельефа (при пoдъёме на 10 м давление пoнижается примернo на 1 мм рт.ст.).